1507521600.13,1613,10.13,72842.0,-8.43,-9.15,-9.23,0,*6F
1507521601.4,1614,10.19,72850.3,-8.43,-9.15,-9.15,0,*6D
1507521602.67,1615,10.19,72838.0,-8.43,-9.15,-9.15,0,*6C
1507521603.93,1616,10.19,72838.8,-8.45,-9.15,-9.11,0,*6D
1507521605.18,1617,10.19,72844.5,-8.45,-9.15,-9.15,0,*68
1507521606.41,1618,10.19,72844.8,-8.45,-9.23,-9.15,0,*62
1507521607.63,1619,10.19,72838.5,-8.45,-9.23,-9.11,0,*67
1507521608.87,1620,10.19,72846.0,-8.43,-9.23,-9.15,0,*6F
1507521610.1,1621,10.13,72840.8,-8.45,-9.11,-9.23,0,*6C
1507521611.32,1622,10.19,72844.0,-8.45,-9.27,-9.15,0,*6F
1507521612.57,1623,10.13,72844.8,-8.43,-9.23,-9.11,0,*68
1507521613.79,1624,10.19,72838.8,-8.45,-9.23,-9.11,0,*69
1507521615.05,1625,10.13,72836.5,-8.45,-9.11,-9.15,0,*6D
1507521616.3,1626,10.19,72834.0,-8.45,-9.15,-9.15,0,*6A
1507521617.57,1627,10.19,72836.5,-8.43,-9.15,-9.15,0,*6D
1507521618.79,1628,10.19,72838.3,-8.45,-9.23,-9.15,0,*61
1507521620.07,1629,10.19,72828.8,-8.43,-9.15,-9.15,0,*63
1507521621.29,1630,10.13,72832.5,-8.45,-9.23,-9.15,0,*68
1507521622.56,1631,10.13,72842.3,-8.43,-9.15,-9.15,0,*6A
1507521623.84,1632,10.19,72838.8,-8.43,-9.15,-9.11,0,*6D
1507521625.11,1633,10.19,72830.5,-8.43,-9.15,-9.11,0,*6C
1507521626.36,1634,10.13,72838.3,-8.45,-9.15,-9.15,0,*69
1507521627.64,1635,10.19,72838.8,-8.43,-9.15,-9.15,0,*6E
1507521628.89,1636,10.19,72842.3,-8.45,-9.15,-9.15,0,*6B
1507521630.16,1637,10.13,72818.8,-8.43,-9.15,-9.15,0,*6C
1507521631.42,1638,10.13,72828.0,-8.45,-9.15,-9.11,0,*61
1507521632.67,1639,10.13,72832.3,-8.45,-9.11,-9.15,0,*60
1507521633.93,1640,10.19,72834.5,-8.45,-9.15,-9.15,0,*6A
1507521635.19,1641,10.13,72838.3,-8.45,-9.15,-9.11,0,*6F
1507521636.41,1642,10.19,72832.3,-8.45,-9.23,-9.15,0,*6D
1507521637.66,1643,10.19,72840.0,-8.45,-9.15,-9.15,0,*69
1507521638.92,1644,10.19,72840.0,-8.45,-9.15,-9.11,0,*6A
1507521640.18,1645,10.19,72832.0,-8.45,-9.15,-9.11,0,*6B
1507521641.43,1646,10.13,72838.3,-8.45,-9.15,-9.15,0,*6C
1507521642.69,1647,10.13,72828.5,-8.45,-9.15,-9.15,0,*6D
1507521643.96,1648,10.13,72824.3,-8.43,-9.15,-9.11,0,*60
1507521645.22,1649,10.13,72832.3,-8.45,-9.15,-9.15,0,*63
1507521646.47,1650,10.13,72834.8,-8.45,-9.15,-9.15,0,*6B
1507521647.73,1651,10.13,72844.5,-8.45,-9.15,-9.15,0,*6A
1507521648.98,1652,10.19,72836.8,-8.45,-9.15,-9.15,0,*69
1507521650.24,1653,10.19,72826.8,-8.45,-9.15,-9.15,0,*68
1507521651.49,1654,10.19,72820.0,-8.45,-9.15,-9.15,0,*6F
1507521652.75,1655,10.13,72816.5,-8.45,-9.15,-9.15,0,*6E
1507521654.0,1656,10.19,72820.8,-8.45,-9.15,-9.15,0,*6D
1507521655.26,1657,10.13,72822.3,-8.45,-9.15,-9.15,0,*6C
1507521656.48,1658,10.19,72824.8,-8.45,-9.23,-9.11,0,*62
1507521657.74,1659,10.19,72828.5,-8.45,-9.15,-9.15,0,*62
1507521658.97,1660,10.13,72826.8,-8.45,-9.15,-9.23,0,*6D
1507521660.22,1661,10.19,72832.5,-8.45,-9.15,-9.15,0,*69
1507521661.48,1662,10.19,72824.8,-8.45,-9.15,-9.15,0,*6A
1507521662.74,1663,10.13,72824.3,-8.45,-9.15,-9.11,0,*6F
1507521663.99,1664,10.19,72836.3,-8.45,-9.15,-9.15,0,*6C
1507521665.25,1665,10.19,72836.5,-8.45,-9.15,-9.15,0,*6D
1507521666.47,1666,10.19,72834.8,-8.45,-9.15,-9.23,0,*6B
1507521667.73,1667,10.13,72836.3,-8.45,-9.15,-9.15,0,*6F
1507521668.96,1668,10.13,72830.0,-8.45,-9.15,-9.23,0,*65
1507521670.21,1669,10.13,72832.8,-8.45,-9.15,-9.15,0,*61
1507521671.47,1670,10.19,72830.8,-8.45,-9.15,-9.15,0,*69
1507521672.72,1671,10.19,72846.0,-8.45,-9.15,-9.15,0,*68
1507521673.94,1672,10.19,72848.0,-8.47,-9.27,-9.19,0,*64
1507521675.16,1673,10.19,72834.0,-8.47,-9.27,-9.19,0,*65
1507521676.38,1674,10.19,72828.3,-8.47,-9.19,-9.19,0,*6F
1507521677.6,1675,10.13,72818.5,-8.47,-9.19,-9.19,0,*6E
1507521678.82,1676,10.19,72826.0,-8.47,-9.19,-9.19,0,*6D
1507521680.04,1677,10.13,72816.5,-8.47,-9.19,-9.19,0,*6C
1507521681.25,1678,10.19,72828.3,-8.47,-9.19,-9.19,0,*63
1507521682.47,1679,10.19,72818.8,-8.47,-9.27,-9.19,0,*6F
1507521683.67,1680,10.19,72826.0,-8.49,-9.19,-9.19,0,*6A
1507521684.88,1681,10.13,72822.5,-8.47,-9.27,-9.19,0,*68
1507521686.1,1682,10.13,72822.8,-8.47,-9.19,-9.19,0,*66
1507521687.32,1683,10.19,72816.8,-8.47,-9.19,-9.19,0,*67
1507521688.51,1684,10.13,72816.5,-8.49,-9.19,-9.19,0,*6E
1507521689.73,1685,10.19,72834.0,-8.47,-9.19,-9.19,0,*61
1507521690.95,1686,10.19,72814.5,-8.47,-9.19,-9.19,0,*62
1507521692.17,1687,10.19,72784.3,-8.47,-9.19,-9.19,0,*63
1507521693.39,1688,10.13,72792.0,-8.47,-9.19,-9.19,0,*6C
1507521694.61,1689,10.19,72812.3,-8.47,-9.19,-9.27,0,*60
1507521695.83,1690,10.19,72808.0,-8.47,-9.27,-9.19,0,*68
1507521697.05,1691,10.13,72820.0,-8.49,-9.19,-9.15,0,*66
1507521698.27,1692,10.19,72820.5,-8.47,-9.27,-9.19,0,*6A
1507521699.49,1693,10.13,72816.5,-8.47,-9.19,-9.27,0,*6B
1507521700.71,1694,10.13,72810.3,-8.47,-9.19,-9.19,0,*61
1507521701.9,1695,10.19,72834.0,-8.49,-9.19,-9.19,0,*6E
1507521703.09,1696,10.19,72810.8,-8.49,-9.27,-9.19,0,*60
1507521704.28,1697,10.19,72824.5,-8.49,-9.27,-9.27,0,*6C
1507521705.48,1698,10.19,72822.8,-8.49,-9.19,-9.19,0,*63
1507521706.7,1699,10.19,72804.3,-8.47,-9.19,-9.19,0,*6C
1507521707.91,1700,10.19,72778.3,-8.47,-9.27,-9.19,0,*60
1507521709.11,1701,10.13,72782.0,-8.49,-9.19,-9.27,0,*6F
1507521710.33,1702,10.13,72792.3,-8.47,-9.27,-9.27,0,*6F
1507521711.55,1703,10.19,72800.8,-8.47,-9.27,-9.27,0,*6E
1507521712.77,1704,10.19,72808.0,-8.47,-9.27,-9.19,0,*64
1507521713.99,1705,10.19,72820.3,-8.47,-9.27,-9.27,0,*68
1507521715.21,1706,10.19,72814.5,-8.47,-9.27,-9.27,0,*6B
1507521716.43,1707,10.19,72824.5,-8.47,-9.27,-9.27,0,*6A
1507521717.62,1708,10.19,72818.8,-8.49,-9.27,-9.19,0,*66
1507521718.84,1709,10.19,72812.5,-8.47,-9.27,-9.19,0,*69
1507521720.03,1710,10.13,72814.5,-8.49,-9.27,-9.19,0,*6F
1507521721.23,1711,10.19,72808.5,-8.49,-9.27,-9.19,0,*6E
1507521722.42,1712,10.19,72808.8,-8.49,-9.27,-9.19,0,*6D
1507521723.61,1713,10.19,72822.3,-8.49,-9.19,-9.19,0,*61
1507521724.83,1714,10.19,72820.0,-8.47,-9.19,-9.19,0,*68
1507521726.02,1715,10.19,72822.5,-8.49,-9.19,-9.19,0,*67
1507521727.24,1716,10.19,72830.3,-8.49,-9.31,-9.15,0,*62
1507521728.46,1717,10.19,72824.5,-8.47,-9.27,-9.19,0,*66
1507521729.67,1718,10.19,72820.3,-8.49,-9.27,-9.15,0,*6B
1507521730.87,1719,10.13,72824.0,-8.49,-9.27,-9.27,0,*6B
1507521732.06,1720,10.19,72830.8,-8.49,-9.19,-9.27,0,*6C
1507521733.28,1721,10.13,72830.0,-8.47,-9.27,-9.19,0,*63
1507521734.47,1722,10.19,72832.8,-8.49,-9.19,-9.19,0,*63
1507521735.7,1723,10.19,72842.5,-8.49,-9.15,-9.19,0,*6E
1507521736.89,1724,10.13,72836.5,-8.49,-9.19,-9.27,0,*68
1507521738.08,1725,10.19,72824.8,-8.49,-9.27,-9.19,0,*69
1507521739.28,1726,10.19,72828.0,-8.49,-9.19,-9.19,0,*67
1507521740.47,1727,10.13,72824.8,-8.49,-9.19,-9.27,0,*6B
1507521741.66,1728,10.19,72818.0,-8.49,-9.19,-9.19,0,*69
1507521742.86,1729,10.19,72808.0,-8.49,-9.19,-9.19,0,*68
1507521744.05,1730,10.19,72806.8,-8.49,-9.27,-9.19,0,*6D
1507521745.24,1731,10.19,72840.0,-8.49,-9.27,-9.27,0,*61
1507521746.44,1732,10.19,72838.3,-8.49,-9.27,-9.27,0,*62
1507521747.63,1733,10.19,72840.3,-8.49,-9.27,-9.19,0,*6E
1507521748.82,1734,10.19,72830.0,-8.49,-9.27,-9.27,0,*64
1507521750.02,1735,10.19,72826.8,-8.49,-9.19,-9.27,0,*68
1507521751.21,1736,10.19,72816.3,-8.49,-9.19,-9.19,0,*66
1507521752.4,1737,10.19,72838.8,-8.49,-9.27,-9.19,0,*6A
1507521753.6,1738,10.19,72838.8,-8.49,-9.27,-9.19,0,*65
1507521754.81,1739,10.19,72836.5,-8.47,-9.31,-9.19,0,*6D
1507521756.0,1740,10.13,72828.3,-8.49,-9.27,-9.19,0,*6A
1507521757.22,1741,10.19,72836.5,-8.47,-9.27,-9.19,0,*65
1507521758.42,1742,10.19,72826.0,-8.49,-9.27,-9.19,0,*68
1507521759.61,1743,10.19,72812.5,-8.49,-9.19,-9.19,0,*64
1507521760.8,1744,10.19,72826.5,-8.49,-9.27,-9.19,0,*6E
1507521761.99,1745,10.19,72810.5,-8.49,-9.27,-9.19,0,*6F
1507521763.18,1746,10.19,72812.5,-8.49,-9.27,-9.19,0,*6C
1507521764.43,1747,10.19,72822.5,-8.51,-9.37,-9.23,0,*6C
1507521765.65,1748,10.19,72820.0,-8.51,-9.31,-9.23,0,*65
1507521766.89,1749,10.19,72842.0,-8.51,-9.37,-9.23,0,*62
1507521768.11,1750,10.19,72840.8,-8.51,-9.23,-9.23,0,*6F
1507521769.32,1751,10.19,72840.5,-8.51,-9.31,-9.23,0,*6D
1507521770.54,1752,10.19,72850.5,-8.51,-9.31,-9.23,0,*6E
1507521771.76,1753,10.19,72836.0,-8.51,-9.31,-9.23,0,*6F
1507521772.97,1754,10.13,72836.0,-8.51,-9.31,-9.23,0,*68
1507521774.19,1755,10.19,72838.3,-8.51,-9.31,-9.23,0,*69
1507521775.39,1756,10.19,72828.8,-8.49,-9.27,-9.27,0,*60
1507521776.57,1757,10.19,72830.0,-8.55,-9.31,-9.31,0,*6C
1507521777.79,1758,10.19,72830.0,-8.51,-9.31,-9.23,0,*64
1507521779.0,1759,10.19,72836.3,-8.51,-9.23,-9.31,0,*65
1507521780.22,1760,10.19,72844.5,-8.51,-9.23,-9.31,0,*6F
1507521781.43,1761,10.19,72842.0,-8.51,-9.23,-9.23,0,*6D
1507521782.65,1762,10.19,72838.0,-8.51,-9.31,-9.23,0,*6D
1507521783.87,1763,10.19,72836.3,-8.51,-9.31,-9.23,0,*6C
1507521785.08,1764,10.13,72836.3,-8.51,-9.31,-9.31,0,*68
1507521786.27,1765,10.19,72840.0,-8.49,-9.19,-9.19,0,*60
1507521787.47,1766,10.19,72838.3,-8.49,-9.19,-9.19,0,*63
1507521788.68,1767,10.19,72830.8,-8.51,-9.23,-9.23,0,*6B
1507521789.9,1768,10.19,72820.0,-8.51,-9.31,-9.23,0,*67
1507521791.12,1769,10.19,72830.8,-8.51,-9.23,-9.19,0,*6C
1507521792.31,1770,10.19,72842.0,-8.55,-9.31,-9.23,0,*6A
1507521793.53,1771,10.19,72846.0,-8.51,-9.31,-9.23,0,*6F
1507521794.77,1772,10.19,72840.0,-8.55,-9.37,-9.37,0,*6B
1507521796.02,1773,10.19,72840.8,-8.55,-9.37,-9.37,0,*6A
1507521797.24,1774,10.19,72842.8,-8.51,-9.23,-9.23,0,*69
1507521798.45,1775,10.19,72848.0,-8.51,-9.23,-9.23,0,*68
1507521799.67,1776,10.13,72836.0,-8.55,-9.27,-9.37,0,*6E
1507521800.89,1777,10.19,72842.8,-8.51,-9.31,-9.31,0,*6A
1507521802.13,1778,10.13,72838.3,-8.55,-9.37,-9.37,0,*61
1507521803.35,1779,10.13,72840.5,-8.55,-9.27,-9.37,0,*61
1507521804.57,1780,10.19,72838.5,-8.51,-9.23,-9.31,0,*61
1507521805.79,1781,10.13,72822.8,-8.55,-9.37,-9.27,0,*66
1507521807.0,1782,10.19,72836.0,-8.51,-9.31,-9.23,0,*63
1507521808.22,1783,10.19,72836.5,-8.51,-9.31,-9.31,0,*61
1507521809.4,1784,10.19,72830.8,-8.55,-9.31,-9.31,0,*62
1507521810.62,1785,10.19,72836.5,-8.51,-9.31,-9.23,0,*64
1507521811.81,1786,10.19,72824.5,-8.55,-9.27,-9.27,0,*60
1507521813.03,1787,10.19,72832.0,-8.51,-9.23,-9.23,0,*65
1507521814.25,1788,10.19,72824.0,-8.51,-9.31,-9.23,0,*69
1507521815.44,1789,10.13,72828.5,-8.55,-9.27,-9.27,0,*6F
1507521816.66,1790,10.13,72826.5,-8.51,-9.31,-9.23,0,*60
1507521817.87,1791,10.19,72824.8,-8.55,-9.37,-9.23,0,*63
1507521819.12,1792,10.19,72836.0,-8.55,-9.37,-9.37,0,*65
1507521820.34,1793,10.19,72830.5,-8.55,-9.37,-9.27,0,*65
1507521821.56,1794,10.13,72828.5,-8.55,-9.37,-9.27,0,*62
1507521822.8,1795,10.13,72826.0,-8.55,-9.37,-9.37,0,*62
1507521824.02,1796,10.13,72820.5,-8.55,-9.37,-9.23,0,*64
1507521825.27,1797,10.19,72820.0,-8.55,-9.37,-9.37,0,*60
1507521826.49,1798,10.19,72816.5,-8.55,-9.37,-9.27,0,*6E
1507521827.7,1799,10.19,72826.3,-8.55,-9.37,-9.27,0,*6F
1507521828.92,1800,10.19,72826.8,-8.55,-9.37,-9.27,0,*60
1507521830.12,1801,10.19,72828.8,-8.55,-9.27,-9.27,0,*60
1507521831.33,1802,10.19,72826.5,-8.51,-9.31,-9.23,0,*64
1507521832.55,1803,10.19,72818.3,-8.55,-9.37,-9.27,0,*63
1507521833.77,1804,10.19,72818.8,-8.51,-9.23,-9.23,0,*61
1507521835.02,1805,10.19,72822.0,-8.55,-9.37,-9.37,0,*64
1507521836.26,1806,10.19,72826.0,-8.55,-9.37,-9.37,0,*67
1507521837.51,1807,10.19,72828.3,-8.55,-9.37,-9.41,0,*67
1507521838.7,1808,10.19,72834.5,-8.55,-9.23,-9.27,0,*6D
1507521839.94,1809,10.19,72842.8,-8.55,-9.37,-9.41,0,*69
1507521841.19,1810,10.19,72836.0,-8.55,-9.37,-9.37,0,*60
1507521842.41,1811,10.19,72836.0,-8.55,-9.27,-9.37,0,*60
1507521843.65,1812,10.19,72824.5,-8.55,-9.37,-9.41,0,*63
1507521844.87,1813,10.13,72824.3,-8.51,-9.31,-9.31,0,*67
1507521846.08,1814,10.19,72824.5,-8.51,-9.23,-9.31,0,*63
1507521847.3,1815,10.13,72830.3,-8.55,-9.37,-9.27,0,*64
1507521848.52,1816,10.19,72832.8,-8.55,-9.37,-9.27,0,*67
1507521849.77,1817,10.19,72816.3,-8.55,-9.37,-9.37,0,*67
1507521851.01,1818,10.13,72804.3,-8.55,-9.37,-9.37,0,*68
1507521852.26,1819,10.13,72806.8,-8.55,-9.37,-9.37,0,*69
1507521853.48,1820,10.19,72838.0,-8.55,-9.37,-9.27,0,*62
1507521854.69,1821,10.19,72842.5,-8.59,-9.27,-9.37,0,*6F
1507521855.94,1822,10.19,72822.8,-8.59,-9.37,-9.37,0,*6D
1507521857.18,1823,10.19,72816.0,-8.59,-9.37,-9.37,0,*6C
1507521858.42,1824,10.19,72822.0,-8.59,-9.37,-9.37,0,*6B
1507521859.67,1825,10.13,72820.0,-8.59,-9.37,-9.37,0,*6A
1507521860.91,1826,10.19,72830.8,-8.59,-9.37,-9.37,0,*69
1507521862.16,1827,10.13,72820.5,-8.59,-9.37,-9.37,0,*68
1507521863.4,1828,10.19,72824.0,-8.59,-9.37,-9.37,0,*67
1507521864.62,1829,10.13,72816.8,-8.59,-9.27,-9.37,0,*67
1507521865.83,1830,10.19,72830.5,-8.59,-9.27,-9.37,0,*6F
1507521867.02,1831,10.19,72834.3,-8.55,-9.27,-9.27,0,*63
1507521868.27,1832,10.19,72834.0,-8.55,-9.37,-9.37,0,*60
1507521869.51,1833,10.19,72834.3,-8.59,-9.37,-9.37,0,*6D
1507521870.73,1834,10.19,72844.0,-8.59,-9.31,-9.41,0,*6D
1507521871.94,1835,10.13,72850.0,-8.59,-9.27,-9.37,0,*6A
1507521873.16,1836,10.19,72844.3,-8.59,-9.27,-9.37,0,*69
1507521874.38,1837,10.19,72834.3,-8.59,-9.37,-9.27,0,*68
1507521875.56,1838,10.13,72830.0,-8.59,-9.31,-9.31,0,*66
1507521876.77,1839,10.19,72830.5,-8.59,-9.27,-9.37,0,*66
1507521877.96,1840,10.19,72828.3,-8.59,-9.27,-9.27,0,*69
1507521879.18,1841,10.19,72820.8,-8.59,-9.27,-9.37,0,*69
1507521880.4,1842,10.19,72808.3,-8.61,-9.31,-9.31,0,*60
1507521881.61,1843,10.19,72798.8,-8.59,-9.37,-9.27,0,*6B
1507521882.83,1844,10.19,72816.3,-8.61,-9.31,-9.31,0,*66
1507521884.04,1845,10.13,72838.3,-8.59,-9.41,-9.23,0,*68
1507521885.23,1846,10.19,72830.5,-8.59,-9.27,-9.27,0,*6F
1507521886.44,1847,10.19,72830.0,-8.59,-9.37,-9.27,0,*6F
1507521887.66,1848,10.19,72844.5,-8.59,-9.23,-9.37,0,*64
1507521888.85,1849,10.13,72842.0,-8.59,-9.27,-9.27,0,*60
1507521890.07,1850,10.19,72834.8,-8.59,-9.37,-9.27,0,*69
1507521891.25,1851,10.13,72834.8,-8.59,-9.27,-9.27,0,*69
1507521892.5,1852,10.19,72840.3,-8.61,-9.41,-9.31,0,*66
1507521893.69,1853,10.19,72840.5,-8.59,-9.23,-9.27,0,*6F
1507521894.87,1854,10.19,72844.3,-8.59,-9.27,-9.27,0,*6C
1507521896.06,1855,10.19,72846.5,-8.59,-9.27,-9.27,0,*6D
1507521897.28,1856,10.13,72840.0,-8.61,-9.31,-9.31,0,*65
1507521898.52,1857,10.19,72842.5,-8.61,-9.41,-9.31,0,*63
1507521899.71,1858,10.19,72846.0,-8.59,-9.27,-9.23,0,*64
1507521900.9,1859,10.19,72850.8,-8.59,-9.27,-9.27,0,*61
1507521902.09,1860,10.13,72844.0,-8.59,-9.27,-9.27,0,*6B
1507521903.28,1861,10.19,72852.3,-8.59,-9.27,-9.27,0,*6A
1507521904.49,1862,10.19,72852.5,-8.61,-9.31,-9.31,0,*62
1507521905.74,1863,10.19,72852.8,-8.61,-9.41,-9.27,0,*63
1507521906.96,1864,10.19,72852.0,-8.59,-9.37,-9.27,0,*6E
1507521908.14,1865,10.19,72846.3,-8.59,-9.27,-9.23,0,*6A
1507521909.36,1866,10.19,72834.8,-8.61,-9.31,-9.31,0,*66
1507521910.61,1867,10.19,72830.8,-8.61,-9.41,-9.27,0,*67
1507521911.8,1868,10.19,72834.0,-8.59,-9.27,-9.27,0,*63
1507521912.98,1869,10.13,72830.8,-8.59,-9.27,-9.27,0,*62
1507521914.2,1870,10.19,72836.5,-8.61,-9.31,-9.31,0,*61
1507521915.39,1871,10.19,72828.8,-8.59,-9.27,-9.27,0,*6B
1507521916.58,1872,10.19,72832.3,-8.59,-9.27,-9.27,0,*68
1507521917.76,1873,10.19,72836.8,-8.59,-9.27,-9.23,0,*6D
1507521918.95,1874,10.13,72832.3,-8.59,-9.27,-9.23,0,*6A
1507521920.14,1875,10.19,72838.8,-8.59,-9.27,-9.27,0,*6F
1507521921.33,1876,10.19,72844.5,-8.59,-9.27,-9.23,0,*68
1507521922.54,1877,10.13,72842.3,-8.59,-9.27,-9.37,0,*6C
1507521923.81,1878,10.19,72840.5,-8.61,-9.41,-9.41,0,*69
1507521925.03,1879,10.19,72840.5,-8.61,-9.27,-9.31,0,*6F
1507521926.25,1880,10.13,72840.3,-8.59,-9.27,-9.37,0,*64
1507521927.44,1881,10.13,72840.3,-8.59,-9.27,-9.27,0,*64
1507521928.65,1882,10.13,72836.0,-8.59,-9.37,-9.27,0,*66
1507521929.87,1883,10.19,72838.5,-8.61,-9.31,-9.31,0,*6D
1507521931.11,1884,10.13,72836.0,-8.61,-9.45,-9.31,0,*69
1507521932.33,1885,10.19,72846.5,-8.61,-9.31,-9.27,0,*6C
1507521933.52,1886,10.19,72846.0,-8.59,-9.27,-9.27,0,*63
1507521934.74,1887,10.19,72836.0,-8.61,-9.31,-9.31,0,*69
1507521935.92,1888,10.19,72824.8,-8.59,-9.27,-9.27,0,*6D
1507521937.15,1889,10.19,72820.3,-8.61,-9.31,-9.27,0,*60
1507521938.36,1890,10.19,72822.0,-8.61,-9.31,-9.31,0,*6F
1507521939.55,1891,10.19,72830.8,-8.59,-9.27,-9.23,0,*61
1507521940.76,1892,10.13,72832.0,-8.61,-9.31,-9.31,0,*6D
1507521941.95,1893,10.19,72838.5,-8.59,-9.27,-9.27,0,*67
1507521943.17,1894,10.19,72834.0,-8.61,-9.31,-9.31,0,*6B
1507521944.39,1895,10.19,72828.5,-8.61,-9.27,-9.31,0,*6D
1507521945.58,1896,10.19,72816.0,-8.59,-9.27,-9.27,0,*62
1507521946.8,1897,10.13,72798.8,-8.61,-9.31,-9.27,0,*6F
1507521948.05,1898,10.19,72824.8,-8.61,-9.41,-9.27,0,*67
1507521949.26,1899,10.19,72820.8,-8.59,-9.37,-9.27,0,*6C
1507521950.48,1900,10.19,72814.3,-8.61,-9.31,-9.31,0,*67
1507521951.69,1901,10.13,72810.3,-8.61,-9.31,-9.31,0,*66
1507521952.91,1902,10.19,72824.8,-8.61,-9.27,-9.31,0,*62
1507521954.15,1903,10.13,72832.3,-8.61,-9.41,-9.31,0,*63
1507521955.37,1904,10.19,72822.5,-8.61,-9.31,-9.31,0,*63
1507521956.59,1905,10.19,72820.8,-8.61,-9.27,-9.27,0,*62
1507521957.83,1906,10.19,72824.3,-8.61,-9.41,-9.31,0,*66
1507521959.02,1907,10.19,72830.0,-8.59,-9.27,-9.23,0,*6F
1507521960.24,1908,10.19,72826.0,-8.61,-9.27,-9.31,0,*68
1507521961.46,1909,10.19,72820.8,-8.61,-9.31,-9.27,0,*69
1507521962.68,1910,10.19,72824.8,-8.61,-9.31,-9.27,0,*61
1507521963.87,1911,10.13,72828.5,-8.63,-9.31,-9.31,0,*65
1507521965.11,1912,10.19,72822.5,-8.61,-9.31,-9.41,0,*63
1507521966.33,1913,10.19,72818.8,-8.61,-9.31,-9.31,0,*65
1507521967.57,1914,10.13,72816.8,-8.61,-9.31,-9.41,0,*65
1507521968.79,1915,10.19,72812.3,-8.61,-9.31,-9.31,0,*63
1507521970.01,1916,10.13,72822.3,-8.61,-9.31,-9.31,0,*60
1507521971.25,1917,10.19,72824.3,-8.61,-9.31,-9.41,0,*66
1507521972.5,1918,10.19,72820.5,-8.61,-9.31,-9.41,0,*69
1507521973.74,1919,10.13,72820.5,-8.61,-9.41,-9.31,0,*68
1507521974.98,1920,10.13,72812.3,-8.63,-9.45,-9.41,0,*63
1507521976.19,1921,10.19,72818.0,-8.63,-9.45,-9.31,0,*65
1507521977.41,1922,10.13,72822.5,-8.61,-9.31,-9.31,0,*67
1507521978.63,1923,10.19,72818.8,-8.61,-9.31,-9.31,0,*66
1507521979.84,1924,10.19,72824.3,-8.61,-9.31,-9.31,0,*61
1507521981.06,1925,10.19,72820.3,-8.61,-9.31,-9.31,0,*60
1507521982.27,1926,10.19,72832.0,-8.61,-9.31,-9.31,0,*63
1507521983.52,1927,10.19,72820.0,-8.61,-9.41,-9.31,0,*65
1507521984.73,1928,10.13,72804.3,-8.59,-9.37,-9.27,0,*67
1507521985.95,1929,10.19,72816.0,-8.61,-9.31,-9.31,0,*6C
1507521987.22,1930,10.19,72810.8,-8.61,-9.41,-9.41,0,*64
1507521988.41,1931,10.19,72806.5,-8.63,-9.31,-9.31,0,*67
1507521989.59,1932,10.19,72812.0,-8.63,-9.31,-9.31,0,*64
1507521990.78,1933,10.19,72802.8,-8.63,-9.31,-9.31,0,*65
1507521991.97,1934,10.19,72796.3,-8.63,-9.31,-9.31,0,*62
1507521993.16,1935,10.19,72810.5,-8.63,-9.31,-9.27,0,*64
1507521994.35,1936,10.13,72810.3,-8.63,-9.31,-9.27,0,*67
1507521995.54,1937,10.19,72818.5,-8.63,-9.31,-9.31,0,*61
1507521996.72,1938,10.19,72818.3,-8.63,-9.31,-9.31,0,*6E
1507521997.94,1939,10.19,72804.0,-8.61,-9.27,-9.31,0,*6A
1507521999.13,1940,10.19,72810.0,-8.63,-9.31,-9.31,0,*61
1507522000.31,1941,10.13,72810.5,-8.63,-9.31,-9.31,0,*60
1507522001.52,1942,10.19,72814.0,-8.63,-9.45,-9.31,0,*60
1507522002.77,1943,10.19,72812.3,-8.63,-9.41,-9.41,0,*62
1507522004.01,1944,10.13,72808.0,-8.63,-9.41,-9.41,0,*65
1507522005.23,1945,10.13,72802.5,-8.63,-9.41,-9.27,0,*64
1507522006.42,1946,10.19,72792.8,-8.63,-9.31,-9.31,0,*67
1507522007.6,1947,10.13,72792.0,-8.63,-9.31,-9.31,0,*66
1507522008.82,1948,10.19,72802.3,-8.63,-9.27,-9.41,0,*69
1507522010.04,1949,10.19,72808.8,-8.63,-9.31,-9.41,0,*6F
1507522011.22,1950,10.19,72814.8,-8.63,-9.31,-9.31,0,*60
1507522012.41,1951,10.19,72814.5,-8.63,-9.31,-9.31,0,*61
1507522013.6,1952,10.19,72822.8,-8.63,-9.31,-9.31,0,*62
1507522014.84,1953,10.19,72822.3,-8.65,-9.37,-9.31,0,*63
1507522016.08,1954,10.19,72824.8,-8.63,-9.41,-9.41,0,*64
1507522017.32,1955,10.13,72804.8,-8.65,-9.37,-9.31,0,*65
1507522018.51,1956,10.19,72804.8,-8.63,-9.31,-9.31,0,*66
1507522019.75,1957,10.19,72810.5,-8.65,-9.37,-9.31,0,*67
1507522020.93,1958,10.13,72800.3,-8.63,-9.31,-9.31,0,*68
1507522022.12,1959,10.19,72802.0,-8.63,-9.31,-9.31,0,*69
1507522023.31,1960,10.19,72802.3,-8.63,-9.31,-9.31,0,*63
1507522024.53,1961,10.19,72810.0,-8.63,-9.41,-9.27,0,*62
1507522025.8,1962,10.19,72822.5,-8.65,-9.37,-9.37,0,*67
1507522026.98,1963,10.19,72828.0,-8.63,-9.31,-9.31,0,*60
1507522028.17,1964,10.19,72808.0,-8.63,-9.31,-9.31,0,*67
1507522029.44,1965,10.13,72806.5,-8.65,-9.45,-9.37,0,*65
1507522030.69,1966,10.19,72808.0,-8.63,-9.41,-9.41,0,*65
1507522031.87,1967,10.19,72818.8,-8.63,-9.31,-9.31,0,*64
1507522033.06,1968,10.19,72816.5,-8.63,-9.31,-9.31,0,*6B
1507522034.33,1969,10.19,72804.3,-8.65,-9.37,-9.37,0,*6C
1507522035.61,1970,10.13,72800.3,-8.65,-9.37,-9.37,0,*64
1507522036.79,1971,10.13,72804.3,-8.63,-9.31,-9.31,0,*63
1507522038.07,1972,10.19,72812.8,-8.65,-9.37,-9.37,0,*66
1507522039.25,1973,10.19,72818.5,-8.63,-9.31,-9.31,0,*61
1507522040.52,1974,10.19,72826.3,-8.65,-9.45,-9.37,0,*65
1507522041.74,1975,10.13,72820.8,-8.63,-9.41,-9.31,0,*60
1507522042.98,1976,10.19,72824.3,-8.65,-9.31,-9.37,0,*64
1507522044.2,1977,10.13,72820.0,-8.63,-9.31,-9.37,0,*63
1507522045.45,1978,10.19,72830.3,-8.65,-9.31,-9.37,0,*6A
1507522046.72,1979,10.13,72816.8,-8.65,-9.37,-9.37,0,*6D
1507522047.96,1980,10.19,72820.3,-8.65,-9.37,-9.31,0,*6D
1507522049.24,1981,10.13,72820.8,-8.65,-9.37,-9.37,0,*6A
1507522050.43,1982,10.19,72824.0,-8.63,-9.31,-9.27,0,*68
1507522051.7,1983,10.13,72818.8,-8.65,-9.37,-9.37,0,*68
1507522052.94,1984,10.19,72820.3,-8.65,-9.37,-9.31,0,*69
1507522054.21,1985,10.19,72818.0,-8.65,-9.45,-9.37,0,*6B
1507522055.48,1986,10.19,72808.3,-8.65,-9.45,-9.45,0,*6D
1507522056.73,1987,10.19,72812.5,-8.65,-9.31,-9.37,0,*6A
1507522058.0,1988,10.19,72838.0,-8.65,-9.37,-9.37,0,*63
1507522059.28,1989,10.19,72824.5,-8.65,-9.37,-9.37,0,*62
1507522060.46,1990,10.19,72816.8,-8.63,-9.27,-9.31,0,*6B
1507522061.74,1991,10.19,72830.3,-8.65,-9.37,-9.37,0,*6B
1507522062.92,1992,10.19,72834.0,-8.63,-9.31,-9.31,0,*6E
1507522064.14,1993,10.19,72824.0,-8.63,-9.41,-9.27,0,*6F
1507522065.38,1994,10.19,72830.8,-8.65,-9.45,-9.31,0,*6D
1507522066.65,1995,10.13,72828.0,-8.65,-9.45,-9.45,0,*6F
1507522067.87,1996,10.19,72832.8,-8.63,-9.41,-9.27,0,*6A
1507522069.14,1997,10.13,72832.8,-8.65,-9.37,-9.45,0,*68
1507522070.42,1998,10.19,72840.5,-8.65,-9.37,-9.37,0,*62
1507522071.69,1999,10.19,72846.5,-8.65,-9.37,-9.37,0,*63
1507522072.93,2000,10.13,72840.0,-8.65,-9.37,-9.31,0,*6F
1507522074.2,2001,10.13,72840.3,-8.65,-9.45,-9.37,0,*6D
1507522075.44,2002,10.19,72814.3,-8.65,-9.37,-9.31,0,*6D
1507522076.69,2003,10.19,72810.3,-8.65,-9.31,-9.37,0,*6C
1507522077.9,2004,10.13,72806.5,-8.63,-9.31,-9.41,0,*6C
1507522079.09,2005,10.19,72816.0,-8.63,-9.31,-9.31,0,*6A
1507522080.36,2006,10.19,72820.0,-8.65,-9.37,-9.37,0,*6F
1507522081.58,2007,10.13,72818.0,-8.63,-9.31,-9.41,0,*6F
1507522082.85,2008,10.13,72816.8,-8.65,-9.37,-9.37,0,*61
1507522084.13,2009,10.13,72820.0,-8.65,-9.37,-9.37,0,*60
1507522085.4,2010,10.19,72834.3,-8.65,-9.45,-9.37,0,*6D
1507522086.67,2011,10.19,72824.3,-8.65,-9.37,-9.37,0,*69
1507522087.95,2012,10.19,72828.3,-8.65,-9.37,-9.37,0,*6A
1507522089.22,2013,10.19,72828.5,-8.65,-9.37,-9.37,0,*6B
1507522090.49,2014,10.13,72822.0,-8.65,-9.37,-9.45,0,*69
1507522091.74,2015,10.13,72832.5,-8.65,-9.31,-9.37,0,*6B
1507522093.01,2016,10.19,72828.3,-8.65,-9.37,-9.37,0,*6E
1507522094.28,2017,10.13,72828.5,-8.65,-9.45,-9.37,0,*6A
1507522095.56,2018,10.13,72824.5,-8.65,-9.37,-9.37,0,*60
1507522096.83,2019,10.19,72826.5,-8.65,-9.45,-9.37,0,*64
1507522098.1,2020,10.19,72834.0,-8.65,-9.37,-9.37,0,*6B
1507522099.38,2021,10.13,72828.8,-8.65,-9.37,-9.37,0,*6A
1507522100.65,2022,10.19,72832.8,-8.65,-9.37,-9.37,0,*69
1507522101.92,2023,10.13,72832.0,-8.65,-9.37,-9.45,0,*6D
1507522103.2,2024,10.13,72834.5,-8.65,-9.37,-9.37,0,*6F
1507522104.47,2025,10.19,72834.0,-8.65,-9.45,-9.37,0,*6B
1507522105.71,2026,10.19,72838.5,-8.65,-9.37,-9.31,0,*6B
1507522106.95,2027,10.19,72848.8,-8.67,-9.45,-9.45,0,*6E
1507522108.2,2028,10.13,72844.3,-8.67,-9.45,-9.37,0,*64
1507522109.47,2029,10.19,72840.5,-8.65,-9.45,-9.37,0,*67
1507522110.74,2030,10.13,72836.3,-8.65,-9.37,-9.37,0,*6A
1507522111.96,2031,10.19,72840.0,-8.63,-9.31,-9.41,0,*6A
1507522113.17,2032,10.19,72836.5,-8.65,-9.31,-9.31,0,*68
1507522114.45,2033,10.19,72842.8,-8.65,-9.37,-9.37,0,*69